Location: Branche des Alpilles
(43.6087°N, 4.6976°E)
Time: 10:21:32
(UTC+00:00)

FENGYUN 1C DEB - Pass Details

Date: 24 June 2021
Orbit: 782 x 878 km, 99.7° (Epoch: 28 July)

Event Time Altitude Azimuth Distance (km) Brightness Sun altitude
Exits shadow 02:35:20 16° 232° (SW) 1,980 ? -12.3°
Maximum altitude 02:37:39 21° 265° (W) 1,719 ? -12.0°
Drops below altitude 10° 02:41:35 10° 315° (NW) 2,367 ? -11.5°
Sets 02:44:27 0° 331° (NNW) 3,291 ? -11.2°
